Weather Roundup
Issued by NWS Springfield, MO

Home | Current Version | Previous Version | Text Only | Print | Product List | Glossary On
Versions: 1 2 3 4 5 6 7 8 9 10 11 12 13 14 15 16 17 18 19 20 21 22 23 24 25 26 27 28 29 30 31 32 33 34 35 36 37 38 39 40 41 42 43 44 45 46 47 48 49 50
000
NZUS99 KSGF 260207
HRRSGF

HOURLY WEATHER
NATIONAL WEATHER SERVICE SPRINGFIELD MO
900 PM CDT WED MAY 25 2016

......SGF CWA......

CITY           SKY/WX    TMP DP  RH WIND       PRES   REMARKS
SPRINGFIELD    CLOUDY    75  66  73 SE14      29.95S
JOPLIN         CLEAR     77  71  82 S9G17     29.90S
WEST PLAINS    MOCLDY    72  66  81 S8        30.03S
ROLLA          CLEAR     71  64  78 S9        29.95S
BRANSON        PTCLDY    72  68  88 SE12      29.99S

......SURROUNDING SGF CWA......

CITY           SKY/WX    TMP DP  RH WIND       PRES   REMARKS
CHANUTE        CLEAR     79  72  79 S14       29.84S
PARSONS        PTCLDY    80  73  79 S8G16     29.87S
COFFEYVILLE    CLOUDY    79  73  82 SE7       29.87R
EMPORIA        CLEAR     77  73  87 SE9       29.81S
GROVE OK       CLEAR     77  73  88 SE3       29.91S
ROGERS AR        N/A     75  71  87 SE9       29.96S
SILOAM SPRINGS CLEAR     75  64  69 S10       29.94F
HARRISON AR    CLOUDY    72  68  87 SE9       30.00S
NEAR YELLVILLE CLOUDY   N/A N/A N/A SE5       29.97S

......KANSAS AND MISSOURI......

CITY           SKY/WX    TMP DP  RH WIND       PRES   REMARKS
KANSAS CTY INT MOCLDY    74  67  78 S8        29.86S
DOWNTOWN KC    CLOUDY    80  67  64 S8        29.84S
COLUMBIA       CLEAR     73  64  73 S7        29.93R
SEDALIA        MOCLDY    75  66  73 S8        29.92R
ST JOSEPH      CLOUDY    76  67  73 S6        29.84S
ST LOUIS       PTCLDY    79  62  56 S10       29.96R
SPIRIT OF STL  CLEAR     76  64  66 S6        29.94R
KIRKSVILLE     CLOUDY    73  64  73 S8        29.91R
WICHITA        PTCLDY    82  71  69 S16G24    29.80R
TOPEKA         CLOUDY    78  69  73 E8        29.82F
OLATHE         MOCLDY    75  68  78 SE7       29.86S

......TENNESSEE......

CITY           SKY/WX    TMP DP  RH WIND       PRES   REMARKS
MEMPHIS        CLOUDY    73  68  84 SE9       30.07S
NASHVILLE      MOCLDY    67  64  90 E10       30.08F

......ARKANSAS.......

CITY           SKY/WX    TMP DP  RH WIND       PRES   REMARKS
FAYETTEVILLE   CLEAR     74  72  93 SE7       29.95F
FT SMITH       CLEAR     82  71  69 CALM      29.92S
LITTLE ROCK    MOCLDY    80  73  79 SE8       30.00R

......OKLAHOMA.......

CITY           SKY/WX    TMP DP  RH WIND       PRES   REMARKS
TULSA          PTCLDY    82  74  76 S9        29.84S
PONCA CITY     CLOUDY    82  73  74 S10G22    29.82R
MCALESTER      CLEAR     82  73  74 S7G16     29.91R
OKLAHOMA CITY  PTCLDY    79  74  84 S14       29.86R

......IOWA............

CITY           SKY/WX    TMP DP  RH WIND       PRES   REMARKS
DES MOINES     CLOUDY    76  64  66 S6        29.85S
QUAD CITIES    CLEAR     75  61  61 S3        29.88R

......ILLINOIS........

CITY           SKY/WX    TMP DP  RH WIND       PRES   REMARKS
QUINCY         CLEAR     77  63  61 S7        29.91R
CHICAGO        TSTM      67  65  93 N13       29.94R




USA.gov is the U.S. government's official web portal to all federal, state and local government web resources and services.